Location: Cucq
(50.4773°N, 1.6202°E)
Time: 04:55:59
(UTC+00:00)

CZ-2D R/B - Pass Details

Date: 07 August 2020
Orbit: 792 x 845 km, 98.7° (Epoch: 19 September)

Event Time Altitude Azimuth Distance (km) Brightness Sun altitude
Rises 02:08:35 0° 12° (NNE) 3,408 6.7 -17.4°
Reaches altitude 10° 02:10:58 10° 9° (N) 2,473 5.7 -17.2°
Maximum altitude 02:16:22 62° 291° (WNW) 952 2.4 -16.7°
Enters shadow 02:19:23 26° 219° (SW) 1,590 3.0 -16.5°
